STARLINK-4189, 52853

Orbit data source: Space-Track

STARLINK-4189, 52853 is a payload satellite owned by SpaceX/Seattle (US) in LEO that was launched on Fri, 17 Jun 2022 UTC via an FALCON 9 launch vehicle from the Air Force Eastern Test Range (AFETR). Payload-class satellites include a variety of spacecraft equipped with specific instruments for various scientific and technological missions. These include communications satellites like Starlink; space stations such as the ISS; scientific satellites like the Hubble; Earth observation satellites from companies like Planet Labs, Umbra, and HawkEye 360; GPS; miniature CubeSats for education and research; and military/defense satellites.

Loading next visibility...
Identifier
52853, 2022-062Z
Orbit
LEO
Country
Flag of USUS
Related business
Manufacturer
SpaceX/Seattle
Mission
Operational Commercial Communications
Bus & Motor
STARLINK, Unknown motor
Mass
297 kg wet, ~275 kg dry
Launch date (UTC)
2022-06-17 (3 years ago)
Launch vehicle
FALCON 9
Launch site
Air Force Eastern Test Range (AFETR)
Object type
Payload
Rocket body
Debris
Shape & HBR
Box + 1 Pan, 10.1 m
Radar Cross Section
13.562 m², Large (>1 m²)

Expand to show TLE details & history
Last TLE update: 1 day ago

TLE from 1 day ago
0 STARLINK-4189
1 52853U 22062Z   25348.44214178  .00009244  00000-0  59791-3 0  9991
2 52853  53.2178  46.7853 0001597  72.2796 287.8371 15.08852541193052
Epoch: 2025-12-14T10:36Z
TLE epoch observation values (Epoch: 2025-12-14T10:36:41.049Z)
Latitude
0.00001°
Longitude
164.25927°
Altitude
540.264 km
Speed
7.594 km/s
True Right ascension
03h 07m 08s
True Declination
0° 00' 00"
Sunlit
Object was in full shadow at epoch
Visualization orbit readout
Latitude
Unknown
Longitude
Unknown
Altitude
Unknown
Speed
Unknown
Apparent Right ascension
Unknown
Apparent Declination
Unknown
Sunlit
N/A
Visualization observer readout
Local Sidereal Time
15:09:07
Azimuth
Unknown
Elevation
Unknown
Doppler factor
Unknown
Orbital elements
Apogee altitude
541.055 km
Perigee altitude
538.845 km
Semi-major axis
6,918.087 km
Eccentricity
0.00016
Inclination
53.2178°
RAAN
46.7853°
Arg. of periapsis
72.2796°
True anomaly
287.81968°
Mean anomaly
287.8371°
Eccentric anomaly
287.82839°
Mean motion
3.77193 °/min
Orbital period
95.44 mins
BSTAR
0.00059791
Loading maneuver chart data...
Computing Atmospheric mass density...
Loading historical data...
Loading historical data...
Loading historical data...
Loading historical data...
Loading historical data...
Loading historical data...
Loading historical data...

Documentation

Showing up to 5 results
|